Pagina principale
METAR-TAF:

METAR-TAF

Aeroporti :

Nashua, New Hampshire, Stati Uniti

latitudine: 42-47N, longitudine: 071-31W, altezza: 61 m

Osservazione

Il bollettino è stato emesso 28 minuti fa, alle 07:56 UTC
Vento calmo
Temperature 21°C
Umidità 100%
Pressione 1014 hPa
Visibilità: 14.5 km
Cielo sereno

METAR: KASH 160756Z AUTO 00000KT 9SM CLR 21/21 A2993 RMK AO2 SLP143 T02110211 PNO $

Ora: 04:24 (08:24 UTC)


TAF: mancante

Osservazioni e previsioni meteorologiche di più di 4000 aeroporti (messaggi METAR e TAF).

Le stazioni disponibili sono rappresentate dai dischi gialli e rossi sulla carta.

Puntare il mouse per vedere il nome della stazione.

Clicca sopra per visualizzare le osservazioni e previsioni meteorologiche.

Per cambiare la mappa : fare clic sui pulsanti verdi con una croce nera per ingrandire, il pulsante verde con un trattino per diminuire, o sulla freccia verde per le mappe adiacenti.


METAR-TAF: